BAW3033 EDDH-EGLL

Flight info

Callsign BAW3033
Flight time 1h 22m
Altitude 40000
Route EDDH/33 N0480F400 WSN5G WSN N125 ITMIZ DCT PARYD DCT ABNED L980 LOGAN LOGA2H EGLL/09L
Aircraft B748/H-V/N

Departure

Time 2026-04-24 19:45
Airport Hamburg Helmut Schmidt Airport (EDDH)

Arrival

Time 2026-04-24 21:07
Airport London Heathrow Airport (EGLL)
Time Latitude Longitude Altitude Speed Heading
2026-04-24 19:07 53.62825 9.99045 51 ft 0 kts 63°
2026-04-24 19:29 53.62825 9.99043 54 ft 2 kts 63°
2026-04-24 19:29 53.62815 9.99015 48 ft 3 kts 31°
2026-04-24 19:30 53.62797 9.99003 45 ft 2 kts
2026-04-24 19:30 53.62781 9.98999 51 ft 2 kts
2026-04-24 19:30 53.62764 9.98995 52 ft 3 kts
2026-04-24 19:30 53.62755 9.98994 53 ft 0 kts 338°
2026-04-24 19:34 53.62757 9.98992 53 ft 2 kts 338°
2026-04-24 19:34 53.62800 9.98957 47 ft 12 kts 333°
2026-04-24 19:34 53.62889 9.98979 47 ft 16 kts 38°
2026-04-24 19:35 53.62976 9.99125 50 ft 18 kts 46°
2026-04-24 19:35 53.63051 9.99286 47 ft 17 kts 53°
2026-04-24 19:35 53.63066 9.99320 51 ft 1 kts 54°
2026-04-24 19:35 53.63070 9.99328 48 ft 0 kts 54°
2026-04-24 19:37 53.63077 9.99346 48 ft 6 kts 54°
2026-04-24 19:37 53.63128 9.99465 47 ft 18 kts 55°
2026-04-24 19:37 53.63193 9.99607 47 ft 0 kts 52°
2026-04-24 19:38 53.63199 9.99620 50 ft 5 kts 52°
2026-04-24 19:38 53.63233 9.99700 47 ft 7 kts 62°
2026-04-24 19:39 53.63228 9.99732 50 ft 3 kts 122°
2026-04-24 19:39 53.63193 9.99782 48 ft 11 kts 146°
2026-04-24 19:39 53.63102 9.99865 51 ft 19 kts 153°
2026-04-24 19:39 53.62965 9.99990 50 ft 25 kts 149°
2026-04-24 19:40 53.62798 10.00113 48 ft 27 kts 154°
2026-04-24 19:40 53.62659 10.00231 49 ft 13 kts 153°
2026-04-24 19:40 53.62588 10.00222 51 ft 9 kts 218°
2026-04-24 19:40 53.62580 10.00207 49 ft 0 kts 229°
2026-04-24 19:41 53.62576 10.00198 53 ft 4 kts 231°
2026-04-24 19:41 53.62547 10.00114 49 ft 2 kts 252°
2026-04-24 19:41 53.62553 10.00040 51 ft 9 kts 297°
2026-04-24 19:42 53.62571 10.00009 53 ft 7 kts 321°
2026-04-24 19:42 53.62601 9.99977 50 ft 10 kts 329°
2026-04-24 19:42 53.62683 9.99904 51 ft 14 kts 333°
2026-04-24 19:42 53.62725 9.99867 51 ft 0 kts 333°
2026-04-24 19:44 53.62873 9.99740 51 ft 77 kts 333°
2026-04-24 19:44 53.63704 9.99041 201 ft 172 kts 331°
2026-04-24 19:45 53.64822 9.98154 696 ft 176 kts 331°
2026-04-24 19:45 53.65854 9.97294 719 ft 158 kts 330°
2026-04-24 19:45 53.66777 9.96478 881 ft 142 kts 327°
2026-04-24 19:45 53.67638 9.95660 979 ft 139 kts 326°
2026-04-24 19:46 53.68480 9.94834 1106 ft 138 kts 326°
2026-04-24 19:46 53.69322 9.94026 1165 ft 148 kts 328°
2026-04-24 19:46 53.70253 9.93215 1415 ft 153 kts 330°
2026-04-24 19:46 53.71149 9.92249 1644 ft 152 kts 314°
2026-04-24 19:47 53.71640 9.90660 1806 ft 156 kts 284°
2026-04-24 19:47 53.71549 9.88794 1972 ft 166 kts 259°
2026-04-24 19:47 53.71123 9.86900 2090 ft 179 kts 254°
2026-04-24 19:47 53.70643 9.84993 1903 ft 172 kts 254°
2026-04-24 19:48 53.70238 9.83169 1710 ft 164 kts 257°
2026-04-24 19:48 53.69875 9.81343 1524 ft 164 kts 258°
2026-04-24 19:48 53.69164 9.77721 1224 ft 162 kts 257°
2026-04-24 19:49 53.68441 9.74046 1581 ft 184 kts 257°
2026-04-24 19:49 53.67646 9.70031 1864 ft 177 kts 258°
2026-04-24 19:50 53.66464 9.64022 3535 ft 190 kts 260°
2026-04-24 19:50 53.66045 9.61912 4097 ft 194 kts 259°
2026-04-24 19:51 53.64999 9.57245 5312 ft 233 kts 242°
2026-04-24 19:51 53.64031 9.55004 5924 ft 244 kts 239°
2026-04-24 19:52 53.61952 9.50236 7102 ft 259 kts 240°
2026-04-24 19:52 53.60886 9.47730 7597 ft 264 kts 239°
2026-04-24 19:52 53.59820 9.45249 8184 ft 267 kts 239°
2026-04-24 19:52 53.58732 9.42724 8824 ft 269 kts 239°
2026-04-24 19:53 53.57638 9.40179 9479 ft 272 kts 240°
2026-04-24 19:53 53.56529 9.37603 10139 ft 273 kts 240°
2026-04-24 19:53 53.54292 9.32418 11372 ft 274 kts 239°
2026-04-24 19:54 53.53166 9.29810 12029 ft 275 kts 239°
2026-04-24 19:54 53.52048 9.27225 12674 ft 277 kts 239°
2026-04-24 19:54 53.50911 9.24597 13343 ft 281 kts 238°
2026-04-24 19:54 53.49736 9.21878 14041 ft 294 kts 238°
2026-04-24 19:55 53.48909 9.19967 14477 ft 303 kts 238°
2026-04-24 19:55 53.47217 9.16072 15295 ft 322 kts 238°
2026-04-24 19:55 53.45862 9.12956 15931 ft 338 kts 237°
2026-04-24 19:55 53.44448 9.09708 16575 ft 353 kts 237°
2026-04-24 19:56 53.42973 9.06327 17243 ft 360 kts 237°
2026-04-24 19:56 53.41481 9.02914 17907 ft 365 kts 237°
2026-04-24 19:56 53.39968 8.99453 18539 ft 368 kts 237°
2026-04-24 19:56 53.38486 8.96068 18717 ft 361 kts 237°
2026-04-24 19:57 53.36983 8.92638 19157 ft 367 kts 237°
2026-04-24 19:57 53.35492 8.89232 19580 ft 368 kts 238°
2026-04-24 19:57 53.34282 8.85492 20041 ft 364 kts 251°
2026-04-24 19:57 53.33384 8.81510 20480 ft 366 kts 251°
2026-04-24 19:58 53.32465 8.77525 20943 ft 368 kts 251°
2026-04-24 19:58 53.31535 8.73577 21391 ft 370 kts 250°
2026-04-24 19:58 53.30597 8.69556 21858 ft 373 kts 250°
2026-04-24 19:58 53.29659 8.65498 22327 ft 375 kts 250°
2026-04-24 19:59 53.28712 8.61423 22810 ft 376 kts 250°
2026-04-24 19:59 53.27755 8.57333 23299 ft 378 kts 250°
2026-04-24 19:59 53.26788 8.53207 23783 ft 385 kts 250°
2026-04-24 19:59 53.25799 8.48978 24221 ft 395 kts 250°
2026-04-24 20:00 53.25133 8.46142 24502 ft 396 kts 250°
2026-04-24 20:00 53.23786 8.40422 25090 ft 398 kts 250°
2026-04-24 20:00 53.22770 8.36115 25528 ft 401 kts 250°
2026-04-24 20:00 53.21745 8.31770 25994 ft 402 kts 250°
2026-04-24 20:01 53.20715 8.27422 26436 ft 403 kts 250°
2026-04-24 20:01 53.19681 8.23062 26890 ft 404 kts 250°
2026-04-24 20:01 53.18641 8.18687 27365 ft 406 kts 250°
2026-04-24 20:01 53.17593 8.14288 27839 ft 409 kts 250°
2026-04-24 20:02 53.16896 8.11366 28173 ft 411 kts 250°
2026-04-24 20:02 53.15484 8.05462 28799 ft 414 kts 250°
2026-04-24 20:02 53.14415 8.01002 29320 ft 416 kts 250°
2026-04-24 20:02 53.13338 7.96515 29817 ft 418 kts 250°
2026-04-24 20:03 53.12252 7.92005 30366 ft 419 kts 250°
2026-04-24 20:03 53.11165 7.87497 30900 ft 421 kts 250°
2026-04-24 20:03 53.10067 7.82953 31443 ft 423 kts 250°
2026-04-24 20:03 53.08967 7.78409 32003 ft 424 kts 250°
2026-04-24 20:04 53.07858 7.73839 32579 ft 424 kts 250°
2026-04-24 20:04 53.06764 7.69344 33151 ft 425 kts 250°
2026-04-24 20:04 53.05656 7.64795 33740 ft 424 kts 250°
2026-04-24 20:04 53.04544 7.60242 34314 ft 423 kts 249°
2026-04-24 20:05 53.03433 7.55702 34831 ft 422 kts 249°
2026-04-24 20:05 53.02329 7.51197 35341 ft 421 kts 249°
2026-04-24 20:05 53.01226 7.46709 35835 ft 419 kts 250°
2026-04-24 20:05 53.00139 7.42299 36351 ft 416 kts 250°
2026-04-24 20:06 52.99044 7.37857 36897 ft 413 kts 250°
2026-04-24 20:06 52.97960 7.33471 37437 ft 410 kts 250°
2026-04-24 20:06 52.96882 7.29118 38014 ft 405 kts 250°
2026-04-24 20:06 52.95813 7.24811 38556 ft 400 kts 250°
2026-04-24 20:07 52.95111 7.21991 38928 ft 396 kts 250°
2026-04-24 20:07 52.93717 7.16393 39535 ft 388 kts 250°
2026-04-24 20:07 52.92688 7.12270 39988 ft 383 kts 250°
2026-04-24 20:07 52.91669 7.08190 40221 ft 384 kts 250°
2026-04-24 20:08 52.90649 7.04110 40222 ft 390 kts 250°
2026-04-24 20:08 52.88583 6.95901 40222 ft 380 kts 250°
2026-04-24 20:09 52.86564 6.87881 40231 ft 379 kts 250°
2026-04-24 20:09 52.84524 6.79824 40215 ft 377 kts 250°
2026-04-24 20:10 52.82501 6.71856 40232 ft 377 kts 250°
2026-04-24 20:10 52.80480 6.63928 40227 ft 375 kts 250°
2026-04-24 20:11 52.78448 6.55980 40230 ft 375 kts 249°
2026-04-24 20:11 52.76415 6.48059 40230 ft 377 kts 249°
2026-04-24 20:12 52.74360 6.40082 40243 ft 377 kts 249°
2026-04-24 20:12 52.72653 6.33477 40243 ft 377 kts 249°
2026-04-24 20:13 52.70239 6.24168 40245 ft 377 kts 249°
2026-04-24 20:13 52.68183 6.16269 40244 ft 377 kts 249°
2026-04-24 20:14 52.66110 6.08334 40246 ft 376 kts 249°
2026-04-24 20:14 52.64035 6.00420 40250 ft 376 kts 249°
2026-04-24 20:15 52.61952 5.92500 40252 ft 377 kts 249°
2026-04-24 20:15 52.60222 5.85942 40252 ft 376 kts 249°
2026-04-24 20:16 52.57791 5.76762 40259 ft 377 kts 249°
2026-04-24 20:16 52.55716 5.68957 40263 ft 377 kts 249°
2026-04-24 20:17 52.53955 5.62352 40268 ft 376 kts 249°
2026-04-24 20:17 52.50814 5.50618 40261 ft 375 kts 249°
2026-04-24 20:18 52.48705 5.42772 40266 ft 375 kts 249°
2026-04-24 20:18 52.46589 5.34931 40266 ft 375 kts 248°
2026-04-24 20:19 52.44469 5.27099 40265 ft 375 kts 248°
2026-04-24 20:19 52.42359 5.19331 40263 ft 375 kts 248°
2026-04-24 20:20 52.40228 5.11509 40266 ft 375 kts 248°
2026-04-24 20:20 52.38089 5.03687 40269 ft 376 kts 248°
2026-04-24 20:21 52.35942 4.95862 40278 ft 377 kts 248°
2026-04-24 20:21 52.33787 4.88034 40267 ft 376 kts 248°
2026-04-24 20:22 52.31666 4.80356 40265 ft 375 kts 248°
2026-04-24 20:22 52.29508 4.72570 40263 ft 375 kts 248°
2026-04-24 20:23 52.27352 4.64815 40249 ft 375 kts 248°
2026-04-24 20:23 52.25197 4.57092 40252 ft 375 kts 248°
2026-04-24 20:24 52.23027 4.49342 40251 ft 375 kts 248°
2026-04-24 20:24 52.20853 4.41599 40252 ft 375 kts 248°
2026-04-24 20:25 52.18692 4.33928 40266 ft 379 kts 248°
2026-04-24 20:25 52.16484 4.26120 40270 ft 378 kts 248°
2026-04-24 20:26 52.14274 4.18331 40266 ft 378 kts 248°
2026-04-24 20:26 52.12076 4.10606 40270 ft 378 kts 247°
2026-04-24 20:27 52.09865 4.02863 40265 ft 377 kts 247°
2026-04-24 20:27 52.07647 3.95121 40264 ft 377 kts 247°
2026-04-24 20:28 52.05423 3.87380 40267 ft 377 kts 247°
2026-04-24 20:28 52.03196 3.79658 40264 ft 377 kts 247°
2026-04-24 20:29 52.00976 3.71982 40267 ft 378 kts 247°
2026-04-24 20:29 51.98734 3.64260 40250 ft 378 kts 247°
2026-04-24 20:30 51.96476 3.56502 40263 ft 380 kts 247°
2026-04-24 20:30 51.94235 3.48833 40266 ft 380 kts 247°
2026-04-24 20:31 51.91970 3.41104 40259 ft 379 kts 247°
2026-04-24 20:31 51.89696 3.33370 40258 ft 380 kts 247°
2026-04-24 20:32 51.87416 3.25640 40268 ft 380 kts 247°
2026-04-24 20:32 51.85160 3.17887 40266 ft 379 kts 253°
2026-04-24 20:33 51.84549 3.13825 40288 ft 377 kts 264°
2026-04-24 20:33 51.84306 3.09589 40274 ft 377 kts 268°
2026-04-24 20:33 51.83940 3.01103 40280 ft 382 kts 264°
2026-04-24 20:34 51.83281 2.92429 40277 ft 392 kts 265°
2026-04-24 20:34 51.83012 2.88002 40021 ft 398 kts 265°
2026-04-24 20:34 51.82738 2.83598 39541 ft 398 kts 265°
2026-04-24 20:35 51.82431 2.79146 39104 ft 397 kts 264°
2026-04-24 20:35 51.82123 2.74718 38608 ft 396 kts 265°
2026-04-24 20:35 51.81827 2.70318 38168 ft 392 kts 265°
2026-04-24 20:35 51.81535 2.65940 37719 ft 389 kts 265°
2026-04-24 20:36 51.81235 2.61559 37303 ft 398 kts 264°
2026-04-24 20:36 51.80923 2.57060 36859 ft 418 kts 264°
2026-04-24 20:36 51.80591 2.52267 36363 ft 434 kts 264°
2026-04-24 20:36 51.80253 2.47425 35856 ft 432 kts 264°
2026-04-24 20:37 51.79918 2.42664 35340 ft 428 kts 264°
2026-04-24 20:37 51.79581 2.37889 34832 ft 423 kts 264°
2026-04-24 20:37 51.79252 2.33249 34329 ft 419 kts 264°
2026-04-24 20:37 51.78920 2.28595 33789 ft 414 kts 264°
2026-04-24 20:38 51.78589 2.23983 33263 ft 409 kts 264°
2026-04-24 20:38 51.78312 2.19403 32753 ft 409 kts 265°
2026-04-24 20:38 51.78048 2.14879 32239 ft 408 kts 265°
2026-04-24 20:38 51.77765 2.10330 31708 ft 405 kts 265°
2026-04-24 20:39 51.77495 2.05829 31182 ft 401 kts 265°
2026-04-24 20:39 51.77235 2.01359 30630 ft 397 kts 265°
2026-04-24 20:39 51.76972 1.96936 30064 ft 393 kts 265°
2026-04-24 20:39 51.76704 1.92560 29495 ft 389 kts 265°
2026-04-24 20:40 51.76439 1.88234 28960 ft 385 kts 265°
2026-04-24 20:40 51.76184 1.84029 28409 ft 382 kts 265°
2026-04-24 20:40 51.75921 1.79751 27846 ft 378 kts 265°
2026-04-24 20:40 51.75660 1.75534 27272 ft 377 kts 265°
2026-04-24 20:41 51.75395 1.71279 26685 ft 382 kts 265°
2026-04-24 20:41 51.75134 1.67115 26094 ft 380 kts 265°
2026-04-24 20:41 51.74860 1.62781 25497 ft 377 kts 265°
2026-04-24 20:41 51.74599 1.58661 25271 ft 367 kts 265°
2026-04-24 20:42 51.74340 1.54579 24731 ft 365 kts 265°
2026-04-24 20:42 51.74080 1.50506 24203 ft 362 kts 265°
2026-04-24 20:42 51.73821 1.46479 23738 ft 358 kts 265°
2026-04-24 20:42 51.73566 1.42547 23186 ft 354 kts 265°
2026-04-24 20:43 51.73311 1.38618 22607 ft 352 kts 264°
2026-04-24 20:43 51.73055 1.34693 22047 ft 350 kts 264°
2026-04-24 20:43 51.72799 1.30791 21482 ft 349 kts 264°
2026-04-24 20:43 51.72542 1.26901 20920 ft 348 kts 264°
2026-04-24 20:44 51.72284 1.23009 20385 ft 347 kts 264°
2026-04-24 20:44 51.72026 1.19141 19854 ft 346 kts 264°
2026-04-24 20:44 51.71767 1.15277 19333 ft 346 kts 263°
2026-04-24 20:44 51.71510 1.11462 18829 ft 345 kts 263°
2026-04-24 20:45 51.71248 1.07598 18291 ft 345 kts 263°
2026-04-24 20:45 51.70986 1.03755 17740 ft 344 kts 263°
2026-04-24 20:45 51.70724 0.99925 17203 ft 343 kts 263°
2026-04-24 20:45 51.70465 0.96141 16696 ft 341 kts 263°
2026-04-24 20:46 51.70203 0.92335 16204 ft 340 kts 263°
2026-04-24 20:46 51.69939 0.88548 15712 ft 338 kts 263°
2026-04-24 20:46 51.69677 0.84788 15230 ft 337 kts 263°
2026-04-24 20:46 51.69414 0.81037 14765 ft 336 kts 263°
2026-04-24 20:47 51.69152 0.77297 14401 ft 332 kts 263°
2026-04-24 20:47 51.68893 0.73641 14179 ft 323 kts 263°
2026-04-24 20:47 51.68641 0.70083 13950 ft 316 kts 263°
2026-04-24 20:47 51.68395 0.66641 13687 ft 310 kts 263°
2026-04-24 20:48 51.68149 0.63211 13397 ft 306 kts 263°
2026-04-24 20:48 51.67908 0.59856 13012 ft 305 kts 263°
2026-04-24 20:48 51.67659 0.56413 12625 ft 305 kts 263°
2026-04-24 20:48 51.67415 0.53035 12278 ft 303 kts 263°
2026-04-24 20:49 51.67169 0.49660 11918 ft 302 kts 263°
2026-04-24 20:49 51.66925 0.46304 11581 ft 300 kts 263°
2026-04-24 20:49 51.66683 0.43013 11246 ft 299 kts 263°
2026-04-24 20:49 51.66437 0.39685 10917 ft 298 kts 263°
2026-04-24 20:50 51.66193 0.36376 10710 ft 292 kts 263°
2026-04-24 20:50 51.65960 0.33242 10691 ft 281 kts 263°
2026-04-24 20:50 51.65721 0.30030 10854 ft 284 kts 263°
2026-04-24 20:50 51.65488 0.26906 11014 ft 286 kts 263°
2026-04-24 20:51 51.65250 0.23742 11012 ft 285 kts 263°
2026-04-24 20:51 51.65009 0.20535 11019 ft 290 kts 263°
2026-04-24 20:51 51.64764 0.17300 11019 ft 290 kts 263°
2026-04-24 20:51 51.64580 0.14033 11027 ft 291 kts 268°
2026-04-24 20:52 51.64425 0.10774 11025 ft 292 kts 263°
2026-04-24 20:52 51.64192 0.07573 11035 ft 290 kts 264°
2026-04-24 20:52 51.63999 0.04311 11027 ft 288 kts 265°
2026-04-24 20:52 51.63843 0.01125 11027 ft 286 kts 265°
2026-04-24 20:53 51.63675 -0.02088 11024 ft 290 kts 265°
2026-04-24 20:53 51.63493 -0.05335 11026 ft 289 kts 265°
2026-04-24 20:53 51.63312 -0.08550 11031 ft 290 kts 265°
2026-04-24 20:53 51.63133 -0.11785 11025 ft 289 kts 265°
2026-04-24 20:54 51.62956 -0.14965 11025 ft 289 kts 265°
2026-04-24 20:54 51.62775 -0.18197 11027 ft 289 kts 265°
2026-04-24 20:54 51.62621 -0.21421 11027 ft 289 kts 272°
2026-04-24 20:54 51.62591 -0.24651 11040 ft 289 kts 264°
2026-04-24 20:55 51.62311 -0.27907 10607 ft 295 kts 261°
2026-04-24 20:55 51.62011 -0.31117 10071 ft 285 kts 263°
2026-04-24 20:55 51.61831 -0.34222 9520 ft 277 kts 266°
2026-04-24 20:55 51.61690 -0.37264 8969 ft 265 kts 265°
2026-04-24 20:56 51.61527 -0.40193 8477 ft 260 kts 264°
2026-04-24 20:56 51.61354 -0.43016 7960 ft 247 kts 264°
2026-04-24 20:56 51.61197 -0.45658 7391 ft 227 kts 264°
2026-04-24 20:56 51.61056 -0.48077 6835 ft 212 kts 264°
2026-04-24 20:57 51.60918 -0.50434 6338 ft 209 kts 264°
2026-04-24 20:57 51.60783 -0.52721 5823 ft 202 kts 264°
2026-04-24 20:57 51.60652 -0.54934 5316 ft 198 kts 263°
2026-04-24 20:57 51.60520 -0.57128 4780 ft 196 kts 263°
2026-04-24 20:58 51.60392 -0.59279 4256 ft 195 kts 263°
2026-04-24 20:58 51.60263 -0.61439 4007 ft 196 kts 263°
2026-04-24 20:58 51.60132 -0.63620 4011 ft 195 kts 263°
2026-04-24 20:58 51.60000 -0.65798 4003 ft 196 kts 263°
2026-04-24 20:59 51.59868 -0.67984 4012 ft 196 kts 263°
2026-04-24 20:59 51.59736 -0.70164 4006 ft 196 kts 263°
2026-04-24 20:59 51.59605 -0.72328 4005 ft 196 kts 263°
2026-04-24 20:59 51.59471 -0.74512 4007 ft 196 kts 263°
2026-04-24 21:00 51.59253 -0.76663 3979 ft 196 kts 248°
2026-04-24 21:00 51.58809 -0.77938 4001 ft 195 kts 233°
2026-04-24 21:00 51.57831 -0.79347 4002 ft 192 kts 207°
2026-04-24 21:00 51.56581 -0.80016 3990 ft 190 kts 183°
2026-04-24 21:01 51.55268 -0.79983 4009 ft 189 kts 175°
2026-04-24 21:01 51.53955 -0.79890 4004 ft 189 kts 175°
2026-04-24 21:01 51.52640 -0.79806 4007 ft 188 kts 175°
2026-04-24 21:01 51.51342 -0.79725 4002 ft 189 kts 176°
2026-04-24 21:02 51.50028 -0.79627 3755 ft 185 kts 172°
2026-04-24 21:02 51.48823 -0.78936 3444 ft 183 kts 143°
2026-04-24 21:02 51.47945 -0.77497 3098 ft 179 kts 126°
2026-04-24 21:02 51.47556 -0.75695 2994 ft 176 kts 90°
2026-04-24 21:03 51.47570 -0.73747 2994 ft 166 kts 91°
2026-04-24 21:03 51.47579 -0.71933 2951 ft 162 kts 90°
2026-04-24 21:03 51.47591 -0.70141 2720 ft 156 kts 90°
2026-04-24 21:03 51.47602 -0.68409 2514 ft 156 kts 90°
2026-04-24 21:04 51.47613 -0.66705 2317 ft 154 kts 90°
2026-04-24 21:04 51.47624 -0.64976 2117 ft 152 kts 90°
2026-04-24 21:04 51.47635 -0.63308 1918 ft 151 kts 90°
2026-04-24 21:04 51.47646 -0.61627 1733 ft 152 kts 89°
2026-04-24 21:05 51.47657 -0.59941 1568 ft 151 kts 89°
2026-04-24 21:05 51.47668 -0.58365 1357 ft 134 kts 89°
2026-04-24 21:05 51.47677 -0.56867 1149 ft 131 kts 89°
2026-04-24 21:05 51.47687 -0.55420 957 ft 131 kts 89°
2026-04-24 21:06 51.47697 -0.53946 766 ft 133 kts 89°
2026-04-24 21:06 51.47706 -0.52480 599 ft 132 kts 89°
2026-04-24 21:06 51.47718 -0.50959 424 ft 144 kts 89°
2026-04-24 21:06 51.47744 -0.49349 239 ft 140 kts 89°
2026-04-24 21:07 51.47755 -0.47905 102 ft 119 kts 91°
2026-04-24 21:07 51.47757 -0.46912 106 ft 59 kts 90°
2026-04-24 21:07 51.47758 -0.46457 107 ft 32 kts 90°
2026-04-24 21:07 51.47758 -0.46114 102 ft 30 kts 88°
2026-04-24 21:08 51.47759 -0.45790 98 ft 26 kts 91°
2026-04-24 21:08 51.47757 -0.45639 99 ft 12 kts 91°
2026-04-24 21:08 51.47735 -0.45517 100 ft 11 kts 123°
2026-04-24 21:08 51.47681 -0.45466 99 ft 6 kts 166°
2026-04-24 21:09 51.47675 -0.45464 99 ft 1 kts 167°
2026-04-24 21:09 51.47662 -0.45459 98 ft 2 kts 169°
2026-04-24 21:09 51.47642 -0.45455 98 ft 3 kts 175°
2026-04-24 21:09 51.47614 -0.45461 98 ft 6 kts 192°
2026-04-24 21:10 51.47558 -0.45470 100 ft 11 kts 194°
2026-04-24 21:10 51.47506 -0.45548 102 ft 11 kts 257°
2026-04-24 21:10 51.47508 -0.45693 103 ft 9 kts 272°
2026-04-24 21:10 51.47511 -0.45788 101 ft 13 kts 274°
2026-04-24 21:11 51.47515 -0.45901 99 ft 0 kts 271°
2026-04-24 21:13 51.47515 -0.45902 99 ft 1 kts 271°
2026-04-24 21:13 51.47516 -0.45938 100 ft 6 kts 270°
2026-04-24 21:13 51.47515 -0.46029 101 ft 11 kts 269°
2026-04-24 21:14 51.47514 -0.46189 100 ft 18 kts 269°
2026-04-24 21:14 51.47511 -0.46406 103 ft 20 kts 269°
2026-04-24 21:14 51.47511 -0.46462 104 ft 2 kts 269°
2026-04-24 21:14 51.47511 -0.46552 105 ft 15 kts 270°
2026-04-24 21:15 51.47496 -0.46778 100 ft 26 kts 265°
2026-04-24 21:15 51.47492 -0.47081 101 ft 25 kts 270°
2026-04-24 21:15 51.47483 -0.47295 100 ft 14 kts 252°
2026-04-24 21:15 51.47440 -0.47349 101 ft 6 kts 190°
2026-04-24 21:16 51.47396 -0.47352 101 ft 7 kts 181°
2026-04-24 21:16 51.47340 -0.47351 100 ft 9 kts 179°
2026-04-24 21:16 51.47262 -0.47350 99 ft 13 kts 181°
2026-04-24 21:16 51.47159 -0.47354 97 ft 14 kts 181°
2026-04-24 21:17 51.47089 -0.47371 98 ft 10 kts 203°
2026-04-24 21:17 51.47059 -0.47438 99 ft 6 kts 252°
2026-04-24 21:17 51.47054 -0.47502 100 ft 0 kts 271°